Location: *
(13.2257°S, 48.7193°W)
Time: 13:06:56
(UTC+00:00)

ATLAS 3B R/B - Pass Details

Date: 13 February 2026
Orbit: 936 x 1257 km, 63.8° (Epoch: 11 March)

Event Time Altitude Azimuth Distance (km) Brightness Sun altitude
Rises 08:35:24 0° 195° (SSW) 3,710 5.6 -9.6°
Reaches altitude 10° 08:38:01 10° 189° (S) 2,794 5.0 -9.0°
Maximum altitude 08:44:23 50° 114° (ESE) 1,337 3.8 -7.5°
Drops below altitude 10° 08:51:11 10° 41° (NE) 2,997 5.4 -5.9°
Sets 08:54:04 0° 36° (NE) 4,000 6.0 -5.3°
